Location: Hylo
(54.6785°N, 112.2142°W)
Time: 10:31:26
(UTC+00:00)

Envisat - Visible Passes

Search period start: 16 September 2024 00:00
Search period end: 26 September 2024 00:00
Orbit: 762 x 764 km, 98.3° (Epoch: 15 September)

Date Brightness Start Highest point End Pass type
(mag) Time Alt. Az. Time Alt. Az. Time Alt. Az.
16 Sep 4.2 10:10:08 10° NNE 10:14:53 38° E 10:18:24 17° SSE visible
16 Sep 3.5 11:49:09 10° N 11:53:55 42° WNW 11:58:33 11° SW visible
17 Sep 5.1 09:33:16 10° NE 09:37:02 21° E 09:40:23 12° SE visible
17 Sep 2.9 11:11:30 10° NNE 11:16:36 77° WNW 11:20:32 17° SSW visible
18 Sep 5.8 08:58:04 10° ENE 08:58:59 10° E 08:59:55 10° E visible
18 Sep 3.5 10:34:03 10° NNE 10:39:05 58° E 10:42:32 20° S visible
18 Sep 4.0 12:13:27 10° N 12:17:48 29° WNW 12:22:08 10° WSW visible
19 Sep 4.6 09:56:53 10° NNE 10:01:23 31° E 10:04:32 17° SE visible
19 Sep 3.2 11:35:40 10° N 11:40:35 51° WNW 11:44:40 15° SW visible
20 Sep 5.4 09:20:17 10° NE 09:23:28 16° E 09:26:31 10° ESE visible
20 Sep 3.0 10:58:05 10° NNE 11:03:12 87° ESE 11:06:40 21° SSW visible
21 Sep 3.9 10:20:43 10° NNE 10:25:37 46° E 10:28:39 22° SSE visible
21 Sep 3.7 11:59:54 10° N 12:04:31 35° WNW 12:08:48 11° SW visible
22 Sep 4.9 09:43:41 10° NE 09:47:50 25° E 09:50:38 16° SE visible
22 Sep 3.0 11:22:11 10° N 11:27:14 64° WNW 11:30:47 19° SW visible
23 Sep 5.6 09:07:31 10° NE 09:09:50 13° E 09:12:08 10° ESE visible
23 Sep 3.2 10:44:40 10° NNE 10:49:46 70° ESE 10:52:46 25° S visible
23 Sep 4.2 12:24:14 10° N 12:28:20 25° NW 12:32:25 10° WSW visible
24 Sep 4.2 10:07:24 10° NNE 10:12:07 37° E 10:14:45 22° SSE visible
24 Sep 3.4 11:46:23 10° N 11:51:10 43° WNW 11:54:53 16° SW visible
25 Sep 5.2 09:30:33 10° NE 09:34:15 20° E 09:36:44 14° ESE visible
25 Sep 2.9 11:08:44 10° NNE 11:13:50 79° WNW 11:16:52 25° SSW visible
